Location: Unspecified
(47.9110°N, 14.3980°E)
Time: 15:09:15
(UTC+00:00)

Meteor 1-4 Rocket - Pass Details

Date: 06 August 2020
Orbit: 449 x 502 km, 81.2° (Epoch: 19 September)

Event Time Altitude Azimuth Distance (km) Brightness Sun altitude
Rises 21:10:44 0° 335° (NNW) 2,495 7.8 -20.6°
Reaches altitude 10° 21:13:10 10° 320° (NW) 1,606 6.3 -20.8°
Maximum altitude 21:15:51 21° 269° (W) 1,078 4.6 -21.0°
Enters shadow 21:17:01 18° 242° (WSW) 1,188 4.5 -21.1°
